{"data":{"norad_id":58326,"epoch":"2026-09-21T21:42:44.459136Z","epoch_age_seconds":120615,"freshness":"FRESH","line1":"1 58326U 23174BY  26264.90468124  .00018551  00000+0  33435-3 0  9995","line2":"2 58326  97.3740 352.2118 0005699 155.7557 204.3964 15.49818171160372","mean_motion":15.49818171,"eccentricity":0.0005699,"inclination_deg":97.374,"raan_deg":352.2118,"arg_perigee_deg":155.7557,"mean_anomaly_deg":204.3964,"bstar":0.00033435,"rev_number":16037,"period_min":92.914125472594,"perigee_km":413.38482504082,"apogee_km":421.13021571514,"semimajor_km":6795.394520378,"source":"CELESTRAK","updated_at":"2026-09-22T09:00:26.582379Z"}}